Temp
-5 -4 -4 -4 -4 -4 -4 -4 -3 -3 -3 -3 -3 -3 -3 -3 -3 -3 -3 -2 -2 -2 -2 -2 -2 -2 -2 -2 -2 -2 -2 -3 -3 -3 -3 -3 -3 -4 -5 -4 -3 -6 -7 -6 -6 -7 -6
-5 -4 -4 -4 -4 -4 -4 -4 -4 -3 -3 -3 -3 -3 -3 -3 -3 -3 -2 -2 -2 -2 -2 -2 -2 -2 -2 -2 -2 -3 -2 -3 -3 -3 -3 -3 -3 -3 -4 -4 -4 -4 -7 -7 -7 -6 -6
-5 -5 -4 -4 -4 -4 -4 -4 -4 -4 -3 -3 -3 -3 -3 -3 -3 -3 -3 -2 -2 -2 -2 -2 -2 -2 -2 -2 -2 -2 -2 -3 -3 -3 -3 -3 -3 -4 -4 -4 -4 -3 -6 -8 -7 -7 -7
-5 -5 -5 -4 -4 -4 -4 -4 -4 -3 -4 -4 -4 -3 -3 -3 -3 -3 -3 -3 -2 -2 -2 -2 -2 -2 -2 -2 -3 -3 -3 -3 -3 -3 -3 -3 -3 -4 -4 -5 -5 -5 -7 -8 -7 -7 -6
-6 -5 -5 -5 -4 -4 -4 -4 -4 -3 -3 -4 -4 -4 -3 -3 -3 -3 -3 -3 -2 -2 -2 -2 -2 -2 -2 -3 -3 -3 -3 -3 -3 -3 -3 -3 -3 -4 -4 -5 -5 -5 -8 -7 -7 -7 -7
-6 -6 -5 -5 -5 -4 -4 -4 -4 -4 -4 -4 -4 -4 -3 -3 -3 -3 -3 -3 -3 -3 -3 -2 -3 -3 -3 -3 -2 -3 -3 -3 -3 -3 -3 -3 -4 -3 -4 -4 -6 -6 -7 -6 -7 -7 -7
-7 -6 -6 -5 -5 -4 -4 -4 -4 -4 -4 -4 -4 -4 -4 -3 -3 -3 -3 -3 -3 -3 -2 -2 -3 -3 -3 -3 -3 -3 -3 -3 -3 -3 -4 -4 -4 -4 -4 -5 -6 -5 -5 -6 -7 -8 -8
-7 -6 -6 -5 -5 -5 -4 -4 -4 -4 -4 -4 -4 -4 -4 -4 -3 -3 -3 -3 -3 -3 -3 -3 -3 -3 -3 -3 -3 -3 -3 -3 -3 -4 -4 -4 -4 -5 -5 -5 -5 -6 -5 -6 -7 -7 -8
-7 -6 -6 -6 -5 -5 -4 -4 -4 -4 -4 -4 -4 -4 -4 -4 -3 -3 -3 -4 -3 -3 -3 -3 -3 -3 -3 -3 -3 -3 -3 -3 -4 -4 -4 -5 -5 -5 -5 -5 -6 -6 -5 -7 -8 -7 -8
-7 -7 -6 -6 -5 -5 -5 -4 -4 -4 -4 -4 -4 -4 -4 -4 -4 -4 -4 -3 -3 -4 -4 -4 -3 -3 -4 -3 -3 -4 -4 -4 -4 -4 -4 -4 -5 -5 -5 -5 -5 -6 -7 -8 -8 -8 -8
-8 -7 -6 -6 -5 -5 -5 -4 -4 -5 -5 -5 -5 -4 -4 -4 -4 -5 -4 -4 -4 -4 -4 -4 -4 -4 -4 -4 -4 -4 -4 -4 -4 -5 -4 -5 -6 -6 -5 -6 -5 -5 -7 -8 -8 -8 -7
-9 -8 -7 -6 -6 -5 -5 -5 -5 -5 -5 -5 -5 -5 -5 -5 -5 -5 -5 -5 -5 -6 -5 -6 -5 -5 -5 -4 -4 -4 -5 -5 -4 -4 -3 -5 -5 -5 -5 -6 -6 -6 -6 -7 -7 -7 -5
-9 -8 -8 -7 -7 -6 -6 -6 -6 -6 -6 -6 -6 -6 -6 -6 -6 -6 -6 -6 -6 -7 -6 -6 -6 -5 -5 -6 -5 -5 -5 -5 -5 -5 -5 -5 -5 -5 -5 -6 -6 -6 -6 -6 -7 -7 -5
-10 -9 -9 -8 -8 -7 -7 -7 -7 -7 -7 -7 -6 -6 -6 -6 -6 -6 -6 -7 -8 -7 -6 -6 -6 -6 -7 -7 -7 -6 -6 -6 -6 -6 -6 -5 -5 -6 -6 -7 -7 -7 -7 -6 -6 -6 -5
-10 -9 -9 -8 -8 -8 -7 -7 -7 -7 -7 -7 -7 -7 -7 -7 -7 -7 -7 -8 -9 -8 -8 -7 -9 -9 -7 -8 -7 -7 -6 -6 -7 -6 -6 -6 -6 -6 -5 -7 -8 -7 -8 -8 -7 -7 -6
-10 -10 -9 -9 -9 -8 -8 -8 -8 -8 -7 -7 -7 -7 -7 -7 -7 -7 -8 -9 -9 -9 -8 -8 -10 -10 -8 -8 -7 -7 -7 -8 -8 -7 -7 -7 -6 -7 -7 -7 -8 -8 -8 -8 -7 -7 -7
-11 -10 -10 -9 -9 -9 -9 -8 -8 -8 -8 -8 -8 -8 -8 -8 -8 -8 -9 -9 -10 -9 -9 -9 -9 -9 -10 -9 -9 -9 -8 -8 -10 -10 -8 -7 -7 -7 -7 -7 -8 -8 -8 -8 -8 -8 -7
-11 -10 -10 -10 -9 -9 -9 -9 -9 -9 -9 -9 -8 -8 -8 -8 -8 -9 -9 -9 -9 -9 -9 -9 -10 -9 -10 -10 -10 -9 -10 -10 -10 -10 -10 -9 -8 -7 -8 -8 -9 -8 -8 -9 -9 -8 -8
-11 -11 -10 -10 -10 -10 -9 -9 -9 -9 -9 -9 -9 -9 -9 -9 -9 -9 -10 -10 -10 -10 -9 -9 -10 -10 -10 -10 -10 -10 -11 -10 -10 -10 -10 -10 -9 -8 -7 -8 -8 -9 -9 -9 -8 -9 -8
-11 -11 -10 -10 -10 -10 -10 -9 -9 -9 -9 -9 -9 -10 -9 -10 -10 -9 -9 -10 -10 -10 -10 -10 -10 -10 -10 -10 -9 -10 -10 -10 -10 -9 -9 -9 -9 -9 -9 -8 -8 -9 -9 -9 -9 -9 -9
-11 -10 -10 -10 -10 -10 -10 -9 -9 -9 -9 -9 -9 -10 -10 -10 -10 -10 -11 -11 -11 -10 -11 -11 -10 -10 -10 -10 -10 -10 -10 -10 -10 -10 -10 -9 -9 -9 -9 -9 -10 -9 -8 -9 -9 -9 -9
-11 -10 -10 -10 -10 -9 -9 -9 -9 -9 -9 -9 -9 -9 -10 -10 -10 -10 -10 -10 -10 -10 -10 -11 -10 -10 -10 -10 -10 -10 -10 -10 -10 -10 -9 -10 -10 -9 -8 -9 -10 -10 -9 -9 -9 -9 -9
-10 -10 -10 -10 -9 -9 -9 -9 -9 -10 -10 -10 -10 -10 -10 -10 -10 -10 -10 -10 -10 -10 -10 -10 -10 -11 -11 -10 -10 -10 -10 -9 -9 -9 -9 -9 -9 -9 -8 -9 -10 -9 -10 -9 -9 -9 -9
-10 -10 -10 -10 -10 -9 -10 -10 -10 -10 -10 -10 -10 -10 -10 -10 -10 -10 -10 -10 -10 -11 -10 -11 -11 -11 -11 -11 -10 -11 -10 -10 -10 -10 -10 -9 -10 -10 -9 -10 -10 -9 -10 -10 -9 -9 -9
-10 -10 -10 -10 -10 -10 -10 -10 -10 -10 -10 -10 -11 -11 -11 -11 -10 -10 -10 -11 -11 -11 -11 -11 -11 -11 -11 -11 -10 -10 -10 -10 -11 -10 -10 -10 -10 -10 -10 -10 -9 -9 -9 -10 -10 -9 -9
-10 -10 -10 -10 -10 -10 -11 -11 -11 -11 -11 -11 -11 -11 -11 -11 -11 -11 -11 -11 -11 -11 -11 -11 -11 -11 -11 -10 -11 -10 -10 -11 -10 -10 -10 -10 -10 -9 -9 -10 -9 -9 -10 -11 -10 -9 -10
-11 -11 -11 -11 -11 -11 -11 -11 -11 -11 -11 -11 -11 -11 -11 -11 -11 -10 -11 -11 -11 -11 -11 -11 -11 -11 -11 -11 -11 -10 -10 -11 -10 -10 -10 -10 -10 -11 -11 -10 -9 -10 -10 -11 -11 -9 -10
-11 -11 -11 -11 -11 -11 -11 -11 -11 -11 -11 -11 -11 -11 -11 -11 -12 -11 -11 -11 -11 -11 -11 -11 -11 -11 -12 -11 -11 -11 -11 -11 -10 -10 -10 -10 -10 -11 -11 -11 -10 -10 -10 -10 -10 -9 -10
-11 -11 -11 -11 -11 -11 -11 -11 -11 -11 -11 -11 -11 -11 -11 -11 -12 -11 -12 -11 -11 -12 -11 -12 -12 -12 -12 -12 -12 -11 -11 -11 -11 -11 -11 -10 -11 -11 -11 -10 -12 -10 -9 -9 -9 -9 -10
Height
5877 5880 5883 5885 5888 5889 5890 5892 5892 5893 5895 5896 5897 5899 5901 5902 5904 5905 5907 5908 5910 5912 5913 5914 5915 5917 5919 5919 5920 5920 5920 5921 5921 5921 5921 5921 5921 5921 5919 5920 5920 5918 5923 5924 5923 5920 5921
5873 5876 5880 5882 5885 5886 5888 5890 5891 5891 5892 5893 5895 5896 5897 5899 5901 5902 5904 5906 5907 5909 5910 5912 5913 5915 5916 5917 5917 5918 5918 5919 5919 5919 5919 5920 5919 5919 5917 5920 5920 5917 5923 5924 5924 5921 5923
5868 5871 5875 5878 5881 5883 5885 5887 5888 5889 5890 5891 5892 5893 5895 5896 5897 5899 5901 5902 5904 5906 5908 5910 5912 5913 5914 5915 5915 5916 5916 5917 5917 5918 5918 5918 5917 5918 5918 5919 5920 5919 5921 5924 5927 5923 5924
5862 5866 5870 5873 5877 5879 5882 5884 5885 5886 5887 5888 5890 5891 5892 5893 5895 5896 5898 5899 5901 5903 5905 5907 5909 5910 5910 5913 5913 5913 5913 5914 5915 5916 5916 5917 5917 5917 5918 5918 5919 5920 5922 5923 5925 5924 5920
5855 5860 5865 5869 5872 5875 5878 5880 5882 5883 5884 5885 5887 5888 5888 5890 5891 5893 5894 5896 5898 5899 5902 5904 5905 5907 5907 5910 5908 5908 5910 5910 5911 5913 5914 5914 5915 5916 5915 5916 5919 5918 5919 5922 5925 5925 5922
5850 5855 5859 5863 5867 5871 5873 5876 5878 5879 5880 5882 5883 5884 5885 5886 5888 5890 5891 5893 5894 5896 5898 5899 5901 5904 5904 5904 5903 5905 5905 5906 5907 5908 5911 5912 5913 5914 5914 5916 5916 5917 5917 5916 5921 5923 5920
5844 5849 5854 5858 5862 5866 5869 5871 5873 5874 5876 5877 5878 5880 5881 5883 5884 5886 5888 5890 5892 5893 5893 5895 5897 5897 5899 5899 5899 5900 5900 5901 5903 5905 5907 5908 5911 5913 5913 5914 5913 5914 5914 5914 5917 5920 5921
5838 5844 5848 5853 5857 5861 5864 5866 5869 5870 5871 5872 5873 5875 5876 5877 5879 5880 5883 5884 5885 5889 5889 5890 5891 5891 5893 5893 5894 5894 5896 5899 5899 5901 5902 5904 5909 5908 5909 5910 5911 5912 5912 5913 5914 5917 5918
5833 5838 5843 5848 5852 5856 5859 5861 5863 5865 5866 5867 5868 5869 5870 5871 5873 5875 5877 5878 5879 5882 5884 5884 5886 5886 5888 5890 5890 5890 5892 5893 5895 5896 5898 5899 5903 5901 5904 5905 5906 5908 5909 5911 5913 5914 5914
5828 5833 5838 5842 5846 5850 5853 5855 5857 5859 5860 5861 5862 5863 5864 5866 5869 5868 5869 5871 5873 5875 5878 5880 5881 5882 5885 5884 5885 5887 5888 5889 5889 5893 5892 5894 5897 5899 5900 5902 5902 5904 5906 5907 5910 5910 5910
5822 5828 5833 5837 5841 5844 5847 5849 5851 5852 5854 5855 5856 5857 5858 5859 5861 5862 5864 5865 5868 5870 5873 5875 5875 5876 5878 5880 5881 5881 5882 5883 5886 5888 5887 5895 5893 5893 5895 5901 5898 5902 5901 5902 5905 5905 5906
5818 5823 5827 5831 5835 5838 5841 5843 5845 5846 5848 5849 5850 5851 5852 5853 5854 5856 5857 5860 5862 5866 5866 5868 5869 5870 5872 5872 5874 5877 5879 5880 5880 5882 5883 5888 5888 5886 5889 5892 5892 5895 5896 5897 5899 5901 5902
5815 5819 5823 5827 5830 5833 5836 5837 5839 5840 5842 5843 5844 5845 5846 5847 5849 5850 5852 5855 5858 5858 5858 5860 5861 5863 5866 5867 5868 5871 5873 5876 5877 5879 5881 5882 5883 5885 5887 5889 5891 5892 5893 5895 5896 5898 5901
5812 5816 5820 5823 5826 5829 5831 5832 5834 5835 5837 5838 5839 5840 5840 5842 5843 5845 5847 5850 5851 5848 5849 5850 5852 5855 5859 5862 5864 5865 5867 5869 5872 5874 5875 5877 5880 5882 5884 5886 5891 5891 5892 5891 5892 5895 5896
5811 5814 5817 5820 5823 5825 5827 5828 5830 5832 5833 5834 5834 5835 5836 5836 5838 5840 5842 5843 5842 5843 5845 5846 5845 5848 5852 5853 5855 5855 5860 5865 5866 5867 5871 5872 5876 5876 5878 5878 5881 5885 5886 5889 5886 5890 5890
5810 5812 5815 5818 5820 5822 5824 5825 5826 5828 5829 5830 5830 5830 5831 5832 5833 5834 5836 5837 5835 5836 5839 5840 5841 5842 5847 5849 5852 5852 5852 5858 5860 5862 5863 5867 5870 5871 5874 5874 5876 5875 5882 5883 5882 5882 5885
5811 5812 5814 5816 5818 5820 5821 5822 5823 5824 5824 5825 5825 5825 5826 5827 5828 5829 5830 5831 5830 5832 5835 5837 5837 5839 5842 5844 5846 5848 5849 5854 5856 5857 5857 5860 5861 5868 5867 5868 5872 5873 5875 5877 5877 5877 5878
5812 5813 5815 5817 5818 5818 5819 5820 5821 5821 5821 5821 5820 5821 5821 5821 5823 5823 5824 5823 5824 5825 5827 5830 5833 5834 5837 5838 5841 5843 5845 5845 5846 5848 5850 5851 5854 5857 5862 5866 5866 5867 5868 5872 5873 5875 5875
5813 5815 5816 5818 5818 5818 5819 5819 5819 5819 5818 5818 5817 5817 5817 5818 5818 5818 5820 5822 5822 5822 5822 5825 5828 5829 5831 5832 5835 5837 5838 5838 5840 5842 5843 5845 5846 5848 5853 5860 5862 5861 5864 5867 5868 5868 5868
5816 5817 5818 5818 5818 5818 5818 5818 5818 5817 5816 5815 5816 5815 5814 5813 5813 5814 5814 5814 5815 5817 5818 5819 5821 5822 5823 5824 5826 5830 5833 5834 5835 5837 5837 5838 5839 5841 5844 5849 5854 5855 5857 5859 5860 5859 5863
5817 5818 5818 5818 5818 5818 5817 5816 5815 5814 5812 5812 5811 5812 5809 5810 5809 5810 5811 5812 5811 5811 5812 5812 5814 5815 5816 5818 5820 5821 5824 5828 5830 5831 5831 5831 5832 5834 5835 5838 5842 5847 5851 5854 5854 5855 5854
5818 5818 5818 5817 5816 5816 5815 5813 5811 5810 5808 5807 5806 5807 5807 5806 5806 5806 5805 5805 5807 5805 5805 5806 5805 5808 5808 5809 5811 5812 5812 5816 5818 5820 5821 5822 5822 5824 5828 5832 5833 5836 5843 5845 5847 5849 5849
5817 5817 5816 5815 5814 5813 5811 5809 5807 5805 5804 5802 5801 5802 5802 5802 5802 5802 5801 5802 5803 5804 5805 5803 5802 5803 5804 5805 5804 5805 5808 5810 5812 5813 5814 5816 5817 5819 5821 5824 5825 5824 5830 5835 5839 5842 5839
5815 5814 5813 5812 5811 5809 5807 5805 5803 5801 5800 5799 5797 5798 5798 5797 5797 5797 5797 5798 5798 5797 5797 5797 5797 5797 5799 5796 5796 5797 5800 5801 5803 5806 5808 5808 5810 5810 5809 5813 5811 5818 5821 5827 5827 5826 5830
5811 5810 5809 5808 5807 5805 5803 5801 5799 5798 5796 5795 5793 5793 5793 5792 5793 5792 5793 5792 5792 5792 5792 5791 5790 5790 5791 5792 5791 5791 5793 5794 5794 5793 5795 5796 5798 5798 5797 5799 5802 5807 5814 5813 5813 5820 5822
5807 5806 5805 5803 5802 5801 5799 5797 5795 5793 5791 5790 5789 5788 5787 5787 5787 5787 5786 5785 5786 5786 5786 5784 5784 5784 5783 5783 5783 5784 5785 5786 5785 5785 5788 5790 5790 5789 5787 5789 5789 5796 5804 5802 5800 5802 5809
5803 5802 5800 5799 5797 5795 5793 5792 5790 5787 5785 5783 5783 5782 5782 5780 5779 5780 5779 5778 5777 5777 5778 5776 5776 5777 5774 5775 5776 5776 5777 5777 5777 5779 5780 5779 5779 5780 5780 5779 5780 5786 5789 5788 5784 5791 5799
5799 5798 5796 5794 5792 5790 5788 5786 5784 5782 5779 5777 5777 5775 5775 5775 5772 5770 5771 5770 5768 5768 5768 5769 5770 5768 5767 5765 5766 5767 5768 5768 5770 5772 5772 5772 5772 5773 5773 5772 5773 5776 5772 5772 5776 5782 5789
5795 5793 5791 5789 5787 5784 5782 5780 5778 5776 5774 5771 5768 5769 5769 5768 5768 5764 5761 5759 5760 5758 5758 5759 5760 5759 5757 5756 5757 5758 5760 5761 5762 5763 5765 5765 5765 5764 5766 5765 5760 5761 5765 5767 5768 5772 5776
Wind_Speed
24 20 17 15 12 9 6 4 7 9 10 9 9 11 11 13 13 13 13 13 12 12 11 10 10 10 10 10 8 8 7 7 7 7 9 10 11 9 13 14 18 5 9 5 11 10 16
28 25 21 18 15 12 9 7 5 7 10 11 11 10 11 12 13 14 15 14 13 13 12 11 9 9 10 10 11 10 10 8 6 6 8 11 14 12 14 14 17 10 7 4 8 10 12
31 28 25 21 18 15 12 10 7 8 9 11 13 13 12 13 13 14 16 16 15 15 15 14 13 11 11 10 11 11 10 9 8 7 9 13 13 11 12 14 14 13 3 2 10 6 12
33 30 27 24 20 18 15 13 11 10 10 10 12 14 14 13 13 15 15 16 17 18 18 17 15 13 17 11 16 16 15 13 11 10 11 13 13 10 11 13 9 5 12 8 5 9 10
33 31 28 25 23 21 17 15 13 12 12 13 13 14 15 15 15 15 16 16 16 16 16 16 16 16 19 15 21 22 17 18 15 13 14 15 13 13 13 11 5 11 9 5 7 10 13
32 31 30 28 25 23 20 17 15 14 14 14 15 16 17 17 18 18 18 17 17 17 17 18 17 16 17 16 20 18 20 20 19 19 18 16 15 14 13 10 11 14 11 10 6 15 8
32 30 29 28 26 24 21 19 18 17 17 17 17 18 19 19 19 19 19 18 19 20 20 18 16 18 15 16 17 21 22 22 22 21 20 19 16 11 11 12 16 19 13 9 6 8 13
31 30 29 28 26 25 22 21 20 20 20 20 21 21 20 21 21 22 21 22 23 18 20 20 17 20 17 19 19 20 22 21 22 21 23 23 13 16 15 16 18 21 17 7 2 2 11
31 30 28 27 26 25 23 22 22 22 23 24 23 22 21 22 23 23 23 22 23 22 19 22 20 23 19 18 18 20 20 21 22 23 23 24 19 23 19 18 18 22 18 10 6 2 7
32 30 28 26 25 25 24 24 25 26 26 25 24 23 22 22 22 23 25 25 25 23 21 24 22 23 19 20 20 17 18 20 21 19 25 25 25 23 22 20 20 20 17 14 12 12 11
29 30 28 27 27 25 26 26 27 27 25 24 24 23 23 23 23 23 24 24 24 23 23 24 23 22 21 21 20 19 19 18 17 19 25 14 26 26 27 20 24 18 20 21 21 18 18
25 27 27 27 26 26 26 27 27 24 24 23 21 21 21 21 22 24 24 24 23 22 23 20 21 20 21 23 23 20 19 19 20 20 21 18 24 29 27 23 23 19 19 25 31 26 20
19 21 22 23 24 24 24 24 22 21 21 20 19 17 17 17 19 20 22 23 21 20 26 26 27 25 24 22 23 21 21 20 21 20 18 18 22 23 25 23 21 20 20 19 29 27 5
15 16 17 17 18 19 18 17 17 17 17 18 18 19 20 20 20 20 19 21 19 28 31 32 30 29 20 20 19 23 23 21 19 20 21 20 19 18 19 15 14 21 20 25 21 18 14
13 14 14 14 14 15 15 15 15 16 15 15 15 15 15 16 16 17 18 17 21 28 30 31 26 24 23 21 27 26 22 21 20 21 19 19 15 19 24 20 16 8 12 13 23 20 21
10 10 11 10 10 10 10 10 12 13 14 14 15 16 16 15 15 15 16 17 25 31 33 34 30 25 22 21 23 26 26 16 17 18 22 19 21 22 20 22 20 25 13 19 23 26 26
8 8 8 7 7 6 7 8 10 11 12 13 14 17 16 16 16 15 16 19 26 30 30 35 35 33 26 18 22 23 27 16 7 12 18 24 25 22 25 25 19 19 16 15 17 27 30
11 10 9 7 5 4 4 5 6 8 9 10 13 14 15 16 15 17 19 24 27 29 30 34 36 36 29 25 23 24 24 22 22 24 24 22 22 27 27 28 23 21 17 15 21 19 33
15 13 11 9 7 5 3 0 2 4 5 7 9 11 12 14 15 17 17 19 22 28 27 25 29 30 32 35 35 32 28 29 30 29 28 25 26 29 27 34 29 25 21 21 22 23 24
13 11 9 8 7 6 4 4 5 6 7 8 7 8 9 10 15 18 20 23 23 24 25 26 28 27 26 24 29 36 38 35 34 34 35 34 32 35 36 30 38 36 31 27 25 24 25
8 6 4 4 4 4 6 8 9 10 9 10 9 7 12 10 11 11 13 20 22 23 23 24 21 26 27 28 29 35 42 42 43 37 40 42 42 41 42 39 33 36 42 39 33 28 28
1 1 3 5 6 7 11 11 12 14 13 14 12 7 10 9 12 11 16 17 20 23 26 26 27 25 28 30 32 36 38 40 43 48 46 50 49 46 43 37 38 39 35 42 43 37 33
3 5 7 8 8 11 14 13 13 13 10 14 16 14 12 13 12 12 17 14 15 15 19 19 21 20 21 25 29 33 34 36 38 40 42 42 42 40 36 35 31 39 44 40 45 40 38
8 9 10 11 11 14 15 15 14 13 11 10 14 16 16 19 16 16 17 16 16 18 16 17 20 21 20 25 26 27 24 30 29 30 35 38 38 42 40 34 39 29 39 39 44 50 46
10 12 12 12 14 16 17 16 16 15 14 13 13 14 16 19 19 19 17 19 20 20 19 18 22 24 23 24 26 27 25 23 28 31 28 32 35 41 46 44 38 31 32 42 52 48 53
13 13 14 15 17 17 18 17 18 19 18 18 17 16 16 18 21 20 22 25 23 23 23 24 24 24 27 26 26 25 25 23 29 30 29 28 31 36 41 40 39 34 33 38 44 52 52
13 15 16 18 19 20 20 20 20 20 20 19 18 19 17 18 23 21 22 24 27 28 26 26 27 26 30 29 28 28 26 27 29 27 27 29 31 30 31 37 36 29 33 35 48 52 44
13 16 18 20 21 22 22 22 21 21 21 21 19 20 19 17 22 23 22 25 27 28 28 27 29 30 30 32 32 30 30 31 29 27 26 28 30 32 31 35 36 25 29 34 35 41 39
18 19 20 20 21 22 22 21 20 19 22 24 24 19 19 19 20 24 27 28 27 29 28 27 27 28 34 35 35 34 31 29 28 28 24 23 24 26 26 29 33 33 31 33 39 47 47
Wind_Direction
224 222 220 218 220 226 236 242 239 236 236 240 243 238 234 234 235 236 238 236 234 233 237 237 235 227 227 234 236 231 232 230 214 212 219 233 238 239 249 273 284 60 297 358 7 317 344
227 226 224 224 226 227 235 249 252 244 242 244 245 249 247 242 239 235 236 238 238 235 234 233 237 232 225 228 232 236 239 232 229 213 226 242 244 246 247 268 285 238 261 8 14 286 351
227 226 227 228 230 235 240 248 261 258 249 246 249 252 252 246 245 245 241 238 235 237 237 238 235 235 235 212 241 242 242 242 240 233 222 244 264 253 269 272 277 260 148 63 107 298 320
226 226 224 227 231 235 242 246 253 265 259 253 249 248 251 255 249 244 243 241 240 238 240 243 242 240 240 224 245 238 237 240 233 242 240 246 257 256 265 274 279 234 148 120 135 311 301
225 224 225 227 231 235 241 250 255 261 267 259 256 254 253 253 253 250 248 248 248 248 248 246 244 242 247 237 236 241 246 242 239 237 242 246 250 243 250 250 247 186 153 116 26 338 290
223 222 224 228 231 235 241 250 255 264 268 268 261 258 255 255 254 252 251 250 248 248 250 249 252 250 249 249 250 255 249 246 243 239 241 245 246 249 257 247 190 178 178 119 48 11 316
221 221 222 226 231 234 241 249 256 265 271 273 267 262 257 255 254 253 251 250 247 246 248 251 254 256 259 255 248 253 244 242 243 244 241 240 241 249 243 227 214 213 200 152 96 356 333
217 220 221 224 229 235 240 247 257 264 268 272 270 267 260 257 257 256 254 252 251 249 252 252 253 257 257 254 251 250 251 247 245 241 240 243 237 240 230 223 234 236 225 196 174 0 283
215 218 221 224 231 236 242 250 257 263 267 267 267 264 260 258 257 257 255 253 256 254 254 257 255 258 253 258 252 247 249 246 243 237 239 241 232 237 230 223 224 228 221 177 217 194 282
213 216 222 226 231 239 244 250 255 260 265 265 263 262 260 257 255 254 252 252 252 254 253 257 254 256 256 251 252 255 248 243 242 238 240 234 234 238 244 238 233 216 207 182 217 234 230
211 215 219 227 233 237 244 250 255 262 263 262 260 259 257 256 255 252 254 254 253 255 255 251 252 252 249 247 247 242 245 241 237 228 237 226 232 242 240 236 240 202 202 204 220 232 228
207 213 219 226 232 238 244 250 256 258 257 256 255 256 257 255 254 252 253 251 250 252 247 242 243 242 242 243 242 240 235 235 231 228 237 220 225 235 242 236 239 230 224 211 220 231 255
201 209 216 223 231 237 244 249 252 253 250 247 247 249 255 259 262 262 257 253 252 246 245 241 236 233 230 235 240 238 235 227 233 232 236 225 234 239 249 251 250 247 245 233 230 239 229
198 204 212 220 228 232 236 239 243 243 242 244 251 256 258 260 262 263 264 254 241 240 238 243 241 233 228 228 236 239 235 235 232 233 233 232 233 237 230 241 272 269 276 260 257 250 212
186 194 204 212 219 226 228 230 234 238 242 246 249 252 255 258 258 258 256 250 233 235 235 236 239 245 231 215 219 228 239 233 234 235 236 234 222 238 242 200 207 203 267 281 267 260 241
159 172 184 196 207 215 220 223 233 240 246 250 252 252 251 253 257 257 249 232 225 229 232 227 219 230 245 255 238 230 223 231 237 239 239 237 226 223 221 218 215 236 213 263 256 252 241
139 147 156 170 187 206 223 236 244 249 252 253 253 255 254 252 252 247 237 222 223 237 239 231 234 238 233 233 231 232 235 225 307 285 252 234 240 212 221 223 224 228 223 250 269 246 249
125 124 128 137 149 168 207 235 248 252 253 255 255 257 257 256 249 239 233 231 231 240 238 231 234 242 235 209 231 233 228 225 218 232 237 238 238 231 227 204 218 230 221 242 268 266 249
112 111 109 106 100 94 85 0 285 276 270 267 265 265 260 251 243 240 236 246 243 241 250 248 240 244 245 246 241 221 215 218 215 213 228 235 243 252 232 212 212 220 223 229 250 265 266
111 105 97 90 78 60 34 3 332 315 308 297 287 285 273 261 257 254 249 239 236 240 247 248 244 240 235 235 235 218 221 212 217 227 237 238 233 241 249 243 220 220 217 219 229 241 261
111 98 80 56 28 3 342 323 310 301 297 289 279 255 264 257 250 242 249 254 251 253 252 251 240 243 241 235 228 231 227 227 231 232 243 252 247 243 246 247 248 235 229 225 229 235 241
127 352 343 333 329 328 327 317 308 290 277 274 269 275 265 268 258 254 252 246 246 244 245 246 251 241 245 244 237 233 232 231 232 238 240 242 244 249 251 252 250 244 241 231 226 231 239
285 303 307 312 311 322 330 327 327 324 285 268 266 257 263 266 262 252 260 264 270 280 283 276 268 263 260 264 260 251 248 247 248 248 250 252 259 265 269 263 256 251 237 232 226 229 233
289 293 296 302 304 316 324 325 326 327 321 288 268 261 257 263 262 262 262 269 270 270 261 263 268 261 255 253 255 262 258 256 260 265 264 262 262 263 267 269 254 252 236 230 230 228 232
286 291 293 295 304 312 316 314 313 312 312 307 290 272 261 260 262 266 268 266 267 269 271 261 257 266 264 264 265 262 262 251 257 256 249 247 244 249 256 258 253 237 233 234 236 233 232
287 290 294 298 301 308 310 310 310 307 303 297 291 285 274 267 265 265 265 266 266 267 266 265 260 258 260 259 262 265 264 261 255 258 261 259 257 256 259 262 261 257 239 247 241 238 235
288 293 297 302 305 305 305 306 306 306 304 300 292 284 281 278 275 267 264 268 270 266 261 260 264 262 262 260 259 260 259 258 261 265 263 258 259 258 270 271 270 276 271 256 254 236 232
294 299 301 302 303 304 304 305 305 304 304 302 296 291 290 283 284 283 275 270 267 269 267 266 260 260 260 262 261 260 259 260 264 266 267 270 269 261 269 271 276 265 253 255 248 229 230
293 296 298 299 302 304 304 303 301 304 307 304 302 294 287 288 286 284 283 283 283 276 273 268 266 262 260 260 260 262 261 258 261 268 274 270 269 266 270 284 280 264 266 250 243 236 236